{"data":{"norad_id":59888,"epoch":"2026-09-21T20:12:14.352192Z","epoch_age_seconds":58600,"freshness":"FRESH","line1":"1 59888U 24100D   26264.84183278  .00010808  00000+0  40152-3 0  9997","line2":"2 59888  42.9996  97.8200 0001937  41.0026 319.0971 15.27594164131052","mean_motion":15.27594164,"eccentricity":0.0001937,"inclination_deg":42.9996,"raan_deg":97.82,"arg_perigee_deg":41.0026,"mean_anomaly_deg":319.0971,"bstar":0.00040152,"rev_number":13105,"period_min":94.265874663292,"perigee_km":481.67768072425,"apogee_km":484.33568778753,"semimajor_km":6861.1436842559,"source":"CELESTRAK","updated_at":"2026-09-22T09:00:49.105838Z"}}